sat.trackr.live / text

‹ back to catalog

STARLINK-3962

NORAD 52708 · 2022-053BE

PAYLOAD ACTIVE UNKNOWN

§ Identity

Operator
Country
US
Launch date
2022-05-18
Launch site
AFETR
Launch vehicle
Mass (kg)
RCS (m²)

Purposes: comms

External: N2YO · Heavens-Above · Gunter

§ Orbital elements

Epoch: 2026-05-24T17:56:41.858880Z

Period
95.44 min
Inclination
53.2151°
Eccentricity
0.0001097
Mean motion
15.08839303 rev/d
Perigee alt
539.0 km
Apogee alt
540.5 km
Semi-major
6,917.9 km
B*
3.2441e-5
RAAN
152.6708°
Arg perigee
68.9546°
Mean anomaly
291.1563°
Rev number
22,300

§ Raw data

STARLINK-39621 52708U 22053BE  26144.74770670  .00000229  00000+0  32441-4 0  99992 52708  53.2151 152.6708 0001097  68.9546 291.1563 15.08839303223009

JSON: /api/v1/satellites/52708 · /tle

For live sub-satellite position, see the globe view (requires WebGL).

§ Visibility from observer

Set your observer location to see the next 7 days of passes ≥ 10°. The values pass through the URL so the page stays shareable.

No JS? Fill the form by hand. The geolocation button needs JavaScript.